Wind_Speed
37 35 29 29 27 32 37 35 32 26 22 21 21 18 21 25 29 31 30 28 28 28 29 28 30 31 30 32 31 33 32 31 34 35 34 35 35 37 38 38 39 42 42
36 29 25 21 22 23 23 23 21 28 29 26 22 23 26 26 27 28 28 27 27 27 28 29 30 30 30 32 34 35 36 36 36 36 34 33 32 31 30 33 35 37 40
29 16 17 17 16 18 20 24 28 29 28 27 25 26 27 24 23 23 24 26 27 28 29 29 30 30 32 34 35 36 39 41 41 40 38 36 32 29 26 27 32 32 34
29 35 29 23 19 17 22 27 33 34 30 24 23 23 24 23 23 24 24 25 26 28 29 30 30 31 33 33 35 37 39 41 41 41 41 37 34 32 29 26 24 27 27
32 31 31 28 25 17 10 17 24 25 25 20 19 19 19 21 23 23 23 25 27 29 29 29 30 31 33 33 34 35 36 38 38 38 39 37 35 33 32 28 25 21 21
27 22 20 21 17 15 11 9 12 15 17 19 21 18 19 21 21 22 23 25 25 26 28 29 31 32 34 34 34 34 33 34 34 34 35 35 34 33 33 31 30 26 24
20 15 15 18 21 18 16 15 15 18 19 20 21 20 19 19 20 21 20 21 22 24 27 30 31 32 33 34 34 34 35 35 35 34 34 33 32 32 33 34 33 32 30
16 12 11 14 17 18 16 18 20 17 17 18 19 17 17 16 15 15 15 17 19 21 23 25 28 30 31 31 32 32 34 35 37 37 36 36 35 34 34 36 35 36 37
14 13 12 13 14 16 17 21 22 22 21 18 20 18 17 15 15 15 16 18 19 20 21 23 25 27 28 29 29 31 32 33 34 36 37 39 41 40 39 38 38 38 40
12 14 17 18 20 21 20 22 26 26 23 20 18 17 17 17 17 17 17 17 19 21 23 25 26 26 27 26 26 26 27 28 30 32 34 36 38 40 40 40 40 41 42
8 10 14 16 17 16 16 20 23 22 20 19 16 16 17 15 15 16 17 21 23 22 20 19 19 19 21 22 25 28 31 34 35 36 37 38 39 39 39 39 40 41 42
12 12 13 13 13 12 12 13 13 11 11 10 9 10 12 13 14 18 20 20 16 14 15 15 16 18 22 26 29 31 34 37 38 37 37 38 40 40 40 39 37 37 38
14 12 11 10 9 8 7 6 7 9 9 7 8 10 11 13 16 16 15 14 13 14 16 17 18 22 25 24 24 26 30 32 32 31 32 33 36 37 38 39 38 36 36
14 11 8 6 5 5 5 5 7 8 9 9 10 11 12 13 13 13 14 13 14 16 16 17 19 22 21 21 24 25 26 26 26 24 23 23 25 28 31 35 37 38 37
16 13 10 7 6 5 6 7 7 8 9 9 10 11 12 14 15 15 13 12 14 14 14 17 19 19 19 21 23 23 22 20 19 19 19 19 19 21 23 26 29 32 34
20 17 16 13 11 10 10 9 9 10 10 11 11 12 13 13 13 12 11 12 13 13 14 16 16 17 19 22 23 21 19 20 22 23 22 21 20 21 21 21 23 26 27
24 22 20 19 18 17 17 16 16 15 15 17 17 16 15 12 11 11 11 12 13 13 14 14 14 17 20 23 24 22 20 20 22 23 21 20 20 20 19 19 20 22 26
29 27 24 22 21 21 21 21 21 20 19 19 20 21 18 15 13 13 13 13 12 12 13 12 13 16 21 25 26 25 24 23 23 23 20 19 19 18 17 17 17 19 21
34 32 28 26 24 23 23 23 22 22 21 19 20 20 18 15 14 14 14 14 13 12 13 12 13 16 21 25 25 24 25 25 26 25 23 21 20 20 20 21 22 22 23
37 35 33 30 28 27 26 24 24 23 22 20 19 19 18 16 16 16 15 13 12 12 12 13 15 18 22 25 25 25 26 27 29 27 25 24 23 23 24 24 24 25 26
34 33 30 28 27 27 27 26 24 23 23 21 21 21 20 19 18 17 16 14 13 14 13 14 17 20 22 24 26 26 28 30 33 31 28 26 26 26 25 25 25 26 27
25 26 25 23 24 25 25 24 22 22 22 22 22 22 21 21 20 18 17 16 15 16 15 15 16 19 22 23 25 27 28 31 33 32 30 29 28 28 26 26 25 26 27
24 24 24 23 22 23 23 22 21 20 20 20 21 22 22 22 20 18 18 18 17 16 16 15 16 20 22 23 24 26 29 31 33 33 32 32 30 28 26 27 27 26 26
24 23 22 21 20 21 21 20 20 19 19 19 19 21 22 21 20 19 19 18 17 17 15 14 16 19 21 22 23 24 27 30 32 33 33 34 31 29 29 28 26 25 24
22 22 21 20 20 20 19 19 18 18 18 19 20 19 19 19 20 20 19 18 17 17 16 15 16 18 19 20 22 24 26 30 32 33 34 34 33 31 31 29 27 25 23
22 22 22 20 19 19 18 17 16 16 16 18 19 18 17 17 19 20 18 17 16 15 15 16 17 18 18 19 21 24 26 29 32 33 35 36 34 33 32 30 27 26 26
Wind_Direction
296 285 270 254 250 243 238 233 243 244 233 232 247 243 241 243 243 243 246 248 248 250 254 258 260 262 264 265 266 268 271 273 274 278 280 284 288 283 272 269 271 268 259
299 280 248 219 219 210 214 220 238 237 227 233 240 245 247 248 249 244 244 248 250 252 256 259 262 264 266 267 268 268 269 270 274 277 280 285 290 296 286 271 268 264 257
289 258 238 238 237 230 246 255 243 239 240 237 238 248 252 251 250 247 248 250 254 257 259 261 264 267 267 268 270 270 270 269 272 276 279 281 286 291 296 287 265 255 254
285 257 285 287 277 256 246 238 232 236 236 242 251 253 251 249 250 251 252 254 258 262 265 266 267 269 271 274 274 273 271 272 272 274 276 277 279 281 288 295 285 265 261
297 286 284 277 283 278 263 247 238 242 243 249 258 262 263 258 254 256 259 263 266 267 267 268 271 274 276 277 276 274 273 274 275 275 274 276 276 276 277 282 286 281 272
300 278 275 273 280 282 284 278 260 253 252 258 261 263 264 263 262 262 264 268 270 271 273 275 275 274 275 274 275 277 277 278 279 279 278 276 275 274 274 273 273 275 276
313 278 266 267 280 285 286 288 281 269 262 261 264 266 269 268 270 270 270 272 274 275 275 276 276 276 275 276 277 277 277 277 279 281 281 278 276 274 274 273 270 267 268
315 287 263 264 276 283 287 289 289 283 274 266 262 266 269 275 277 274 273 272 274 275 276 278 279 280 282 281 280 280 280 279 278 279 281 282 279 276 273 272 269 265 261
310 301 287 274 268 264 265 269 273 271 272 274 265 260 264 263 259 262 268 273 275 276 278 280 281 282 284 284 284 284 284 284 283 285 284 284 283 280 276 271 268 266 264
302 302 295 287 278 271 266 262 264 269 271 269 264 261 251 252 257 260 267 273 277 280 283 284 285 287 288 289 290 288 286 286 284 283 282 280 278 278 278 275 270 268 266
297 298 298 294 289 285 274 264 265 263 256 249 249 243 244 253 258 262 262 272 277 276 279 284 286 289 291 290 289 289 288 288 286 285 283 281 279 276 274 274 274 271 268
286 288 289 290 292 286 272 261 253 239 239 224 225 244 254 257 259 262 265 271 273 274 282 284 284 290 295 296 296 296 293 288 287 286 285 282 280 278 278 277 276 275 274
275 282 287 287 274 260 240 207 203 219 233 238 248 256 255 255 257 259 260 262 266 275 281 285 293 298 299 298 298 298 294 289 286 286 286 285 283 281 278 275 273 273 273
258 263 277 283 260 228 210 190 198 217 228 236 247 254 257 255 254 258 262 269 277 283 284 288 298 304 305 305 307 307 304 297 292 292 292 291 288 284 280 276 274 271 269
245 247 247 248 245 237 226 219 215 221 232 238 243 250 256 263 265 264 266 278 287 283 285 300 312 319 324 325 321 314 308 302 299 302 306 310 307 301 291 281 276 272 270
239 241 242 240 239 240 242 237 234 232 239 250 255 258 258 259 259 265 276 288 281 279 288 302 317 329 336 338 334 323 308 297 293 295 299 305 308 307 299 289 281 275 271
240 240 242 242 242 241 241 242 246 250 248 249 253 255 256 257 260 267 277 281 273 278 292 308 328 341 345 347 344 338 327 312 299 295 294 296 302 305 302 296 290 281 275
240 242 242 241 241 241 239 239 243 248 251 252 253 252 253 258 262 267 270 270 270 285 304 318 335 344 346 345 343 341 337 330 321 315 307 301 302 305 305 304 305 300 289
237 242 242 244 245 245 245 243 244 245 248 250 249 249 251 257 261 266 268 265 267 286 307 323 336 343 345 346 345 342 340 339 334 330 327 320 311 307 304 302 301 303 302
231 238 241 245 246 248 249 249 248 246 246 248 248 249 252 260 267 270 268 261 266 282 306 323 333 341 342 345 345 343 341 342 342 336 329 325 320 314 309 302 298 296 297
229 232 236 239 244 250 251 250 249 248 247 249 249 249 253 260 267 268 262 257 266 280 298 318 328 332 334 339 343 343 341 340 340 337 330 323 318 316 312 305 297 293 294
226 226 228 240 248 246 243 245 249 250 250 249 249 248 252 258 263 263 258 253 260 276 290 306 320 323 325 332 342 344 341 338 337 336 334 328 322 317 314 311 304 297 295
220 223 232 241 242 241 242 248 255 260 259 250 250 252 255 259 262 260 257 255 258 270 285 301 315 316 315 322 330 336 338 337 337 336 335 332 327 322 319 316 311 305 300
213 221 230 234 237 240 243 251 262 270 267 254 249 250 255 261 263 262 260 261 262 270 281 294 309 313 311 314 324 331 331 332 334 335 334 332 330 328 324 321 316 311 307
208 216 223 227 231 237 244 252 259 266 266 264 259 251 249 253 258 261 259 261 264 272 280 290 302 310 312 311 318 328 333 333 333 334 332 330 330 329 327 326 322 319 314
208 214 220 224 227 233 240 245 255 267 273 272 264 253 248 253 259 259 259 262 263 272 281 288 298 308 310 309 319 329 334 336 336 334 332 331 331 330 329 327 324 321 320
Height
5735 5728 5723 5720 5721 5724 5724 5726 5729 5733 5736 5738 5741 5743 5748 5752 5755 5758 5761 5761 5763 5765 5767 5767 5768 5766 5765 5764 5764 5764 5763 5762 5760 5759 5757 5755 5753 5750 5748 5746 5745 5745 5744
5728 5722 5720 5716 5715 5715 5718 5722 5725 5728 5730 5733 5735 5740 5743 5745 5747 5749 5752 5754 5755 5756 5758 5759 5759 5757 5755 5754 5754 5754 5753 5753 5753 5751 5749 5747 5745 5742 5738 5736 5734 5733 5733
5723 5719 5717 5717 5718 5714 5714 5717 5721 5723 5726 5729 5731 5734 5737 5739 5740 5741 5743 5745 5747 5749 5749 5750 5749 5747 5746 5745 5745 5744 5744 5745 5744 5742 5739 5739 5738 5735 5731 5728 5725 5723 5723
5715 5714 5714 5715 5714 5712 5712 5714 5715 5716 5719 5723 5726 5730 5732 5733 5733 5735 5736 5738 5739 5740 5741 5741 5741 5740 5739 5737 5737 5737 5736 5736 5735 5733 5731 5730 5729 5727 5725 5723 5718 5716 5716
5707 5704 5708 5709 5710 5710 5708 5708 5711 5714 5715 5717 5721 5724 5726 5727 5728 5730 5731 5732 5732 5732 5733 5732 5732 5733 5731 5730 5730 5730 5729 5728 5726 5726 5724 5723 5722 5721 5720 5717 5714 5711 5711
5699 5699 5701 5703 5703 5704 5706 5705 5707 5709 5710 5713 5716 5719 5721 5722 5723 5725 5725 5725 5726 5725 5725 5725 5724 5724 5724 5724 5722 5721 5721 5720 5718 5716 5715 5714 5714 5713 5713 5711 5709 5706 5706
5695 5694 5695 5697 5699 5701 5702 5702 5703 5704 5704 5708 5712 5714 5715 5716 5717 5718 5717 5718 5718 5718 5718 5718 5717 5717 5716 5715 5713 5711 5711 5710 5709 5707 5707 5704 5703 5703 5702 5702 5701 5699 5698
5695 5694 5693 5693 5695 5695 5697 5698 5699 5700 5701 5703 5707 5707 5709 5710 5711 5712 5713 5712 5711 5711 5712 5712 5711 5710 5708 5707 5705 5703 5702 5701 5700 5698 5697 5695 5693 5693 5693 5693 5693 5692 5689
5696 5693 5691 5692 5692 5692 5693 5694 5693 5694 5695 5697 5700 5702 5704 5705 5707 5707 5707 5707 5706 5706 5706 5706 5705 5703 5702 5700 5699 5697 5694 5692 5690 5688 5686 5684 5682 5682 5683 5684 5683 5682 5681
5693 5691 5689 5686 5685 5685 5686 5687 5687 5687 5689 5692 5694 5696 5698 5699 5699 5700 5701 5701 5700 5700 5700 5700 5699 5697 5696 5694 5692 5689 5685 5683 5680 5678 5676 5674 5673 5671 5670 5671 5671 5672 5672
5691 5688 5686 5684 5682 5680 5680 5680 5681 5682 5685 5688 5689 5690 5692 5692 5693 5694 5695 5697 5697 5697 5695 5694 5693 5691 5689 5687 5684 5681 5677 5674 5671 5668 5666 5664 5662 5660 5659 5658 5659 5660 5660
5689 5687 5684 5682 5680 5679 5678 5678 5679 5681 5682 5684 5685 5686 5686 5687 5688 5690 5692 5693 5692 5691 5690 5690 5689 5687 5684 5681 5677 5673 5669 5665 5661 5659 5657 5654 5652 5650 5648 5648 5649 5650 5650
5686 5684 5683 5680 5679 5678 5677 5677 5678 5679 5680 5681 5681 5681 5683 5684 5686 5687 5688 5688 5688 5687 5686 5684 5682 5680 5677 5674 5670 5666 5661 5656 5653 5650 5647 5643 5641 5639 5637 5637 5638 5639 5640
5681 5681 5680 5679 5677 5677 5676 5675 5677 5678 5679 5679 5680 5681 5681 5682 5683 5683 5683 5683 5683 5682 5681 5679 5678 5675 5671 5667 5663 5658 5653 5649 5645 5642 5639 5636 5633 5630 5628 5627 5626 5627 5628
5675 5676 5676 5675 5674 5674 5675 5675 5675 5677 5677 5677 5677 5677 5677 5678 5678 5679 5679 5679 5678 5677 5676 5674 5672 5669 5665 5660 5655 5650 5646 5642 5639 5637 5634 5630 5627 5624 5621 5619 5618 5617 5618
5668 5669 5670 5671 5670 5671 5671 5672 5673 5674 5675 5675 5675 5675 5674 5674 5674 5675 5674 5673 5672 5671 5671 5669 5667 5663 5659 5654 5649 5645 5640 5636 5633 5631 5628 5624 5621 5618 5615 5613 5612 5611 5611
5661 5662 5663 5664 5665 5666 5667 5668 5668 5669 5670 5671 5671 5671 5671 5670 5670 5670 5669 5668 5667 5667 5666 5664 5661 5658 5654 5649 5645 5640 5635 5631 5627 5624 5621 5618 5616 5613 5610 5608 5606 5605 5603
5651 5654 5655 5657 5658 5659 5661 5662 5662 5663 5664 5664 5665 5666 5666 5666 5666 5665 5664 5663 5663 5662 5661 5659 5656 5654 5650 5646 5641 5635 5630 5626 5621 5617 5614 5611 5609 5607 5605 5602 5600 5598 5596
5640 5644 5647 5649 5651 5652 5653 5654 5656 5657 5658 5658 5658 5659 5660 5661 5661 5660 5658 5658 5658 5657 5656 5654 5652 5650 5646 5642 5636 5631 5626 5622 5617 5612 5608 5605 5603 5601 5599 5596 5593 5591 5588
5629 5634 5637 5640 5642 5643 5645 5647 5648 5650 5651 5652 5651 5652 5653 5654 5654 5654 5653 5653 5652 5652 5651 5649 5647 5644 5642 5638 5633 5628 5623 5618 5613 5608 5604 5600 5597 5595 5592 5589 5587 5584 5581
5619 5624 5627 5631 5634 5635 5637 5639 5641 5642 5643 5644 5645 5645 5646 5647 5647 5647 5647 5647 5647 5647 5646 5644 5642 5640 5637 5634 5629 5623 5618 5614 5610 5605 5600 5596 5592 5589 5586 5582 5579 5576 5573
5610 5615 5619 5623 5626 5628 5630 5632 5633 5634 5635 5637 5637 5638 5639 5639 5640 5641 5642 5642 5641 5641 5641 5640 5638 5636 5633 5630 5626 5621 5616 5611 5606 5601 5596 5591 5586 5582 5578 5575 5571 5568 5565
5603 5608 5612 5615 5618 5621 5624 5626 5627 5628 5628 5629 5630 5631 5632 5633 5633 5634 5635 5635 5635 5634 5634 5634 5633 5631 5628 5625 5622 5618 5613 5608 5602 5596 5591 5586 5581 5576 5572 5568 5564 5560 5557
5595 5601 5605 5608 5612 5615 5617 5619 5621 5622 5622 5623 5623 5624 5625 5626 5627 5627 5627 5628 5628 5627 5627 5628 5628 5627 5624 5621 5618 5614 5609 5604 5598 5592 5586 5581 5575 5570 5565 5561 5557 5553 5550
5588 5594 5598 5602 5606 5608 5611 5613 5614 5616 5617 5617 5618 5618 5619 5620 5621 5622 5621 5622 5622 5621 5621 5622 5622 5622 5620 5616 5613 5609 5606 5601 5594 5588 5582 5577 5571 5565 5559 5554 5550 5546 5542
5583 5588 5592 5596 5599 5602 5605 5607 5609 5610 5610 5611 5612 5612 5612 5614 5615 5616 5615 5615 5615 5615 5615 5616 5616 5616 5613 5611 5608 5604 5601 5596 5589 5583 5577 5571 5566 5560 5554 5549 5544 5539 5535